FW5762 Taoyuan City TW current weather conditions

sailwx.info

Wind from 106 at 1 knots gusting 5

Air temperature 21.1° C
Dewpoint 19.2° C

Last reported at 2020-Sep-26 16:55 UTC.
Time now 2020-Sep-26 17:28 UTC

Location: N 24°60' E 121°19'.
View on Google Maps.

See reports from other nearby stations

  
Tides and Currents Weather Stations Pressure Air Temp Water Temp Dewpoint Dewpoint Depression Visibility Wind Speed Wind Dir Waves Ship Positions
date/time (UTC)wind fromknots sea level pressurealtimeterstation pressurevisibilityair tempwater tempwave heightnotes
2020-Sep-26 17:09 083 3 gusting 9 21.1
2020-Sep-26 17:04 057 5 gusting 7 21.1
2020-Sep-26 16:55 106 1 gusting 5 21.1
2020-Sep-26 16:49 072 0 gusting 7 20.6
2020-Sep-26 16:44 356 1 gusting 7 20.6
2020-Sep-26 16:39 074 5 gusting 7 21.1
2020-Sep-26 16:35 101 3 gusting 9 20.6
2020-Sep-26 16:29 077 4 gusting 9 20.6
2020-Sep-26 16:25 103 3 gusting 8 20.6
2020-Sep-26 16:20 050 2 gusting 8 21.1
2020-Sep-26 16:14 107 3 gusting 8 21.1
2020-Sep-26 16:09 109 3 gusting 9 21.1
2020-Sep-26 16:04 078 5 gusting 9 21.1
2020-Sep-26 16:00 044 5 gusting 8 21.1
2020-Sep-26 15:54 097 4 gusting 8 21.1
2020-Sep-26 15:49 063 4 gusting 7 21.1
2020-Sep-26 15:45 066 1 gusting 9 21.7
2020-Sep-26 15:39 143 5 gusting 9 21.7
2020-Sep-26 15:34 127 1 gusting 8 21.7
2020-Sep-26 15:29 082 5 gusting 8 21.7
2020-Sep-26 15:25 095 5 gusting 8 21.7
2020-Sep-26 15:19 126 4 gusting 7 21.7
2020-Sep-26 15:15 094 3 gusting 11 22.2
2020-Sep-26 15:09 112 1 gusting 12 22.2
2020-Sep-26 15:05 089 4 gusting 12 22.2
2020-Sep-26 14:59 083 4 gusting 7 22.8
2020-Sep-26 14:55 082 6 gusting 9 22.8
2020-Sep-26 14:49 122 4 gusting 9 22.8
2020-Sep-26 14:44 041 5 gusting 8 22.8
2020-Sep-26 14:39 112 4 gusting 11 22.8
2020-Sep-26 14:34 103 6 gusting 11 22.8
2020-Sep-26 14:25 140 4 gusting 12 22.8
2020-Sep-26 14:19 060 4 gusting 8 22.8
2020-Sep-26 14:14 133 3 gusting 6 22.8
2020-Sep-26 14:09 107 2 gusting 6 22.8
2020-Sep-26 14:05 142 3 gusting 6 23.3
2020-Sep-26 13:59 067 3 gusting 6 23.3
2020-Sep-26 13:55 078 1 gusting 9 23.3
2020-Sep-26 13:49 060 1 gusting 9 23.3
2020-Sep-26 13:44 076 3 gusting 12 23.3
2020-Sep-26 13:39 018 2 gusting 12 23.3
2020-Sep-26 13:34 119 5 gusting 16 23.3
2020-Sep-26 13:29 114 5 gusting 16 23.3
2020-Sep-26 13:25 095 6 gusting 9 23.3
2020-Sep-26 13:19 119 3 gusting 9 23.3
2020-Sep-26 13:15 101 3 gusting 7 23.3
2020-Sep-26 13:09 082 2 gusting 7 23.3
2020-Sep-26 13:05 104 3 gusting 7 23.3
2020-Sep-26 12:59 037 0 gusting 7 23.3
2020-Sep-26 12:55 104 3 gusting 7 23.3
2020-Sep-26 12:49 073 3 gusting 7 23.3
2020-Sep-26 12:44 093 5 gusting 6 23.3
2020-Sep-26 12:39 113 5 gusting 6 23.3
2020-Sep-26 12:34 040 1 gusting 6 23.3
2020-Sep-26 12:29 063 1 gusting 6 23.3
2020-Sep-26 12:24 072 3 gusting 9 23.3
2020-Sep-26 12:20 087 3 gusting 9 23.3
2020-Sep-26 12:14 087 4 gusting 7 23.3
2020-Sep-26 12:10 077 5 gusting 7 23.3
2020-Sep-26 12:04 013 3 gusting 7 23.3
2020-Sep-26 11:58 089 3 gusting 6 23.3
2020-Sep-26 11:54 090 3 gusting 11 23.3
2020-Sep-26 11:49 112 1 gusting 11 23.3
2020-Sep-26 11:44 074 3 gusting 7 23.3
2020-Sep-26 11:40 077 4 gusting 9 23.3
2020-Sep-26 11:34 096 3 gusting 9 23.3
2020-Sep-26 11:29 103 4 gusting 6 23.3
2020-Sep-26 11:24 089 2 gusting 8 23.3
2020-Sep-26 11:19 150 3 gusting 8 23.3
2020-Sep-26 11:14 103 3 gusting 8 23.3
2020-Sep-26 11:10 091 2 gusting 7 23.3
2020-Sep-26 11:04 119 1 gusting 8 23.3
2020-Sep-26 10:58 114 6 gusting 9 22.8
2020-Sep-26 10:54 074 4 gusting 9 22.8
2020-Sep-26 10:50 114 2 gusting 13 22.8
2020-Sep-26 10:45 043 6 gusting 13 22.8
2020-Sep-26 10:40 114 6 gusting 12 22.8
2020-Sep-26 10:34 085 6 gusting 12 22.8
2020-Sep-26 10:29 077 7 gusting 9 22.8
2020-Sep-26 10:24 062 5 gusting 12 22.8
2020-Sep-26 10:19 072 5 gusting 12 23.3
2020-Sep-26 10:14 070 7 gusting 9 23.3
2020-Sep-26 10:09 119 9 gusting 9 23.3
2020-Sep-26 10:04 083 2 gusting 11 23.3
2020-Sep-26 09:59 128 4 gusting 11 23.3
2020-Sep-26 09:55 135 6 gusting 8 23.3
2020-Sep-26 09:50 079 4 gusting 6 23.3
2020-Sep-26 09:44 124 1 gusting 7 23.3
2020-Sep-26 09:39 080 1 gusting 7 23.3
2020-Sep-26 09:34 119 2 gusting 6 23.3
2020-Sep-26 09:28 090 3 gusting 6 23.3
2020-Sep-26 09:24 112 1 gusting 5 23.9
2020-Sep-26 09:19 081 1 gusting 5 23.9
2020-Sep-26 09:14 112 0 gusting 6 23.9
2020-Sep-26 09:09 030 1 gusting 6 23.3
2020-Sep-26 09:05 083 2 gusting 6 23.9
2020-Sep-26 08:59 092 3 gusting 5 23.9
2020-Sep-26 08:55 083 0 gusting 3 23.9
2020-Sep-26 08:49 043 1 gusting 3 23.9
2020-Sep-26 08:45 068 0 gusting 3 23.9
2020-Sep-26 08:39 009 1 gusting 3 23.9
2020-Sep-26 08:34 073 1 gusting 3 24.4
2020-Sep-26 08:29 062 0 gusting 3 24.4
2020-Sep-26 08:24 016 0 gusting 3 24.4
2020-Sep-26 08:19 128 1 gusting 2 24.4
2020-Sep-26 08:14 081 2 gusting 3 24.4
2020-Sep-26 08:09 042 0 gusting 3 24.4
2020-Sep-26 08:04 037 2 gusting 2 24.4
2020-Sep-26 07:59 039 0 gusting 3 24.4
2020-Sep-26 07:54 074 2 gusting 3 24.4
2020-Sep-26 07:49 038 0 gusting 5 24.4
2020-Sep-26 07:45 057 1 gusting 6 24.4
2020-Sep-26 07:40 073 0 gusting 6 24.4
2020-Sep-26 07:34 022 1 gusting 6 24.4
2020-Sep-26 07:29 012 24.4
2020-Sep-26 07:24 106 1 gusting 5 25.0
2020-Sep-26 07:20 123 0 gusting 3 25.0
2020-Sep-26 07:14 134 1 gusting 7 25.0
2020-Sep-26 07:10 097 2 gusting 7 25.0
2020-Sep-26 07:04 079 2 gusting 6 25.0
2020-Sep-26 06:58 073 3 gusting 5 25.0
2020-Sep-26 06:55 059 1 gusting 5 25.0
2020-Sep-26 06:49 057 1 gusting 5 25.0
2020-Sep-26 06:43 015 0 gusting 7 25.0
2020-Sep-26 06:39 078 3 gusting 7 25.0
2020-Sep-26 06:34 059 1 gusting 7 25.0
2020-Sep-26 06:29 052 5 gusting 7 25.0
2020-Sep-26 06:24 079 3 gusting 6 25.0
2020-Sep-26 06:19 122 3 gusting 6 25.0
2020-Sep-26 06:14 109 1 gusting 13 25.0
2020-Sep-26 06:10 018 2 gusting 13 25.0
2020-Sep-26 06:04 044 5 gusting 11 25.0
2020-Sep-26 05:59 259 5 gusting 9 25.6
2020-Sep-26 05:54 141 3 gusting 8 25.6
2020-Sep-26 05:50 098 5 gusting 8 25.0
2020-Sep-26 05:44 073 4 gusting 8 25.0
2020-Sep-26 05:39 092 2 gusting 12 25.0
2020-Sep-26 05:34 089 4 gusting 12 25.0
2020-Sep-26 05:29 078 6 gusting 9 25.0
2020-Sep-26 05:24 087 1 gusting 9 25.6
2020-Sep-26 05:19 093 3 gusting 11 25.0
2020-Sep-26 05:14 094 6 gusting 11 25.0
2020-Sep-26 05:09 095 2 gusting 9 25.0
2020-Sep-26 05:05 102 3 gusting 9 25.0
2020-Sep-26 05:00 030 3 gusting 7 25.0
2020-Sep-26 04:54 057 2 gusting 5 25.0
2020-Sep-26 04:50 113 1 gusting 5 25.0
2020-Sep-26 04:44 092 0 gusting 5 24.4
2020-Sep-26 04:40 093 0 gusting 6 24.4
2020-Sep-26 04:34 116 4 gusting 6 24.4
2020-Sep-26 04:30 087 3 gusting 5 23.9
2020-Sep-26 04:24 153 3 gusting 6 23.9
2020-Sep-26 04:20 066 1 gusting 6 23.9
2020-Sep-26 04:14 088 2 gusting 6 23.9
2020-Sep-26 04:09 104 2 gusting 6 23.9
2020-Sep-26 04:04 083 2 gusting 7 23.9
2020-Sep-26 03:58 072 5 gusting 9 23.9
2020-Sep-26 03:54 093 2 gusting 9 23.3
2020-Sep-26 03:50 101 6 gusting 9 23.3
2020-Sep-26 03:44 098 3 gusting 11 23.3
2020-Sep-26 03:39 035 6 gusting 11 23.3
2020-Sep-26 03:34 110 2 gusting 8 23.3
2020-Sep-26 03:29 137 2 gusting 8 23.3
2020-Sep-26 03:24 107 3 gusting 6 23.3
2020-Sep-26 03:19 092 3 gusting 6 23.3
2020-Sep-26 03:15 081 4 gusting 6 23.3
2020-Sep-26 03:09 102 3 gusting 7 22.8
2020-Sep-26 03:04 073 5 gusting 8 22.8
2020-Sep-26 02:59 352 3 gusting 8 22.8
2020-Sep-26 02:54 075 2 gusting 7 23.3
2020-Sep-26 02:49 090 2 gusting 8 22.8
2020-Sep-26 02:44 101 3 gusting 8 22.8
2020-Sep-26 02:39 096 5 gusting 8 22.8
2020-Sep-26 02:34 100 5 gusting 8 22.8
2020-Sep-26 02:29 095 3 gusting 8 22.8
2020-Sep-26 02:25 127 3 gusting 6 22.8
2020-Sep-26 02:20 132 3 gusting 6 22.8
2020-Sep-26 02:14 087 4 gusting 8 22.2
2020-Sep-26 02:10 119 5 gusting 8 22.2
2020-Sep-26 02:04 046 3 gusting 6 22.2
2020-Sep-26 01:59 024 1 gusting 6 22.2
2020-Sep-26 01:54 099 0 gusting 8 22.2
2020-Sep-26 01:49 096 1 gusting 8 22.2
2020-Sep-26 01:44 085 5 gusting 7 22.2
2020-Sep-26 01:39 063 2 gusting 7 22.2
2020-Sep-26 01:35 078 3 gusting 7 22.2
2020-Sep-26 01:29 075 2 gusting 6 22.2
2020-Sep-26 01:25 120 1 gusting 6 22.2
2020-Sep-26 01:19 101 3 gusting 9 22.2
2020-Sep-26 01:14 087 3 gusting 9 22.2
2020-Sep-26 01:09 139 2 gusting 9 22.8
2020-Sep-26 01:04 128 1 gusting 9 22.8
2020-Sep-26 00:59 028 1 gusting 6 22.8
2020-Sep-26 00:54 109 3 gusting 6 22.8
2020-Sep-26 00:49 095 1 gusting 5 22.8
2020-Sep-26 00:44 002 1 gusting 5 22.8
2020-Sep-26 00:40 033 0 gusting 6 22.8
2020-Sep-26 00:34 099 1 gusting 6 22.8
2020-Sep-26 00:28 083 3 gusting 6 22.8
2020-Sep-26 00:24 072 1 gusting 6 22.8
2020-Sep-26 00:20 022 2 gusting 7 22.8
2020-Sep-26 00:14 057 4 gusting 8 22.8
2020-Sep-26 00:09 045 1 gusting 8 22.8
2020-Sep-26 00:04 094 3 gusting 7 23.3
2020-Sep-25 23:59 110 5 gusting 7 23.3
2020-Sep-25 23:54 352 2 gusting 7 23.3
2020-Sep-25 23:49 034 2 gusting 6 23.3
2020-Sep-25 23:44 061 1 gusting 6 23.3
2020-Sep-25 23:39 201 3 gusting 8 23.3
2020-Sep-25 23:35 025 1 gusting 8 23.3
2020-Sep-25 23:29 056 1 gusting 6 23.3
2020-Sep-25 23:24 071 0 gusting 6 23.3
2020-Sep-25 23:20 007 2 gusting 3 23.3
2020-Sep-25 23:15 055 22.8
2020-Sep-25 23:09 112 1 gusting 5 22.8
2020-Sep-25 23:04 111 2 gusting 6 22.8
2020-Sep-25 22:59 029 2 gusting 6 22.8
2020-Sep-25 22:55 108 0 gusting 6 22.8
2020-Sep-25 22:49 038 1 gusting 5 22.8
2020-Sep-25 22:43 040 1 gusting 6 22.8
2020-Sep-25 22:39 097 1 gusting 6 22.8
2020-Sep-25 22:34 073 22.8
2020-Sep-25 22:29 095 2 gusting 6 22.8
2020-Sep-25 22:24 087 4 gusting 7 22.8
2020-Sep-25 22:20 090 2 gusting 7 22.8
2020-Sep-25 22:14 068 2 gusting 7 22.8
2020-Sep-25 22:09 093 3 gusting 5 22.8
2020-Sep-25 22:04 108 1 gusting 6 22.8
2020-Sep-25 21:54 091 0 gusting 6 22.8
2020-Sep-25 21:49 099 2 gusting 6 22.8
2020-Sep-25 21:44 358 0 gusting 5 22.8
2020-Sep-25 21:39 086 1 gusting 5 22.8
2020-Sep-25 21:34 066 2 gusting 6 22.8
2020-Sep-25 21:29 089 2 gusting 6 22.8
2020-Sep-25 21:24 073 1 gusting 6 22.2
2020-Sep-25 21:20 074 1 gusting 6 22.2
2020-Sep-25 21:14 102 1 gusting 6 22.2
2020-Sep-25 21:10 076 1 gusting 6 22.2
2020-Sep-25 21:04 124 3 gusting 7 22.2
2020-Sep-25 20:59 102 1 gusting 9 22.2
2020-Sep-25 20:54 087 3 gusting 9 22.2
2020-Sep-25 20:50 078 6 gusting 6 22.2
2020-Sep-25 20:44 112 3 gusting 6 22.2
2020-Sep-25 20:40 335 2 gusting 6 22.2
2020-Sep-25 20:34 113 2 gusting 6 22.2
2020-Sep-25 20:29 094 1 gusting 6 22.2
2020-Sep-25 20:24 180 1 gusting 6 22.2
2020-Sep-25 20:20 029 1 gusting 6 22.2
2020-Sep-25 20:15 075 2 gusting 6 22.2
2020-Sep-25 20:09 097 4 gusting 8 22.2
2020-Sep-25 20:05 033 2 gusting 9 22.2
2020-Sep-25 19:59 135 3 gusting 9 22.2
2020-Sep-25 19:54 102 5 gusting 9 22.2
2020-Sep-25 19:49 113 3 gusting 8 22.2
2020-Sep-25 19:44 114 3 gusting 8 22.8
2020-Sep-25 19:39 101 6 gusting 11 22.8
2020-Sep-25 19:34 072 1 gusting 11 22.8
2020-Sep-25 19:29 025 2 gusting 8 22.8
2020-Sep-25 19:24 072 2 gusting 8 22.8
2020-Sep-25 19:19 116 4 gusting 7 22.8
2020-Sep-25 19:14 056 1 gusting 6 22.8
2020-Sep-25 19:09 163 3 gusting 7 22.8
2020-Sep-25 19:04 079 3 gusting 7 22.8
2020-Sep-25 18:59 098 2 gusting 7 22.8
2020-Sep-25 18:54 100 1 gusting 7 22.8
2020-Sep-25 18:49 109 3 gusting 6 23.3
2020-Sep-25 18:43 095 3 gusting 6 23.3
2020-Sep-25 18:39 102 3 gusting 6 23.3
2020-Sep-25 18:35 039 2 gusting 6 23.3
2020-Sep-25 18:29 099 1 gusting 6 23.9
2020-Sep-25 18:25 071 1 gusting 5 23.9
2020-Sep-25 18:19 074 0 gusting 5 23.9
2020-Sep-25 18:14 123 1 gusting 5 23.3
2020-Sep-25 18:09 030 3 gusting 6 23.3
2020-Sep-25 18:04 106 1 gusting 6 23.3
2020-Sep-25 17:59 106 2 gusting 6 23.3
2020-Sep-25 17:54 095 2 gusting 6 23.3
2020-Sep-25 17:49 117 3 gusting 9 23.3
2020-Sep-25 17:44 021 4 gusting 9 23.3
2020-Sep-25 17:39 082 7 gusting 9 23.3
2020-Sep-25 17:35 058 2 gusting 6 23.9
2020-Sep-25 17:29 149 1 gusting 6 23.9
2020-Sep-25 17:25 122 2 gusting 6 23.9
2020-Sep-25 17:19 085 1 gusting 6 23.9
2020-Sep-25 17:14 097 2 gusting 6 23.9
2020-Sep-25 17:09 051 5 gusting 6 23.9
2020-Sep-25 17:04 117 1 gusting 5 23.9
2020-Sep-25 16:59 070 3 gusting 5 23.9
2020-Sep-25 16:54 107 0 gusting 5 23.9
2020-Sep-25 16:49 109 1 gusting 5 23.9
2020-Sep-25 16:44 060 3 gusting 5 23.9
2020-Sep-25 16:40 099 1 gusting 2 23.9
2020-Sep-25 16:34 067 1 gusting 3 23.9
2020-Sep-25 16:29 066 2 gusting 3 23.9
2020-Sep-25 16:25 045 23.9
2020-Sep-25 16:19 084 2 gusting 6 23.9
2020-Sep-25 16:14 104 3 gusting 5 23.9
2020-Sep-25 16:09 003 0 gusting 3 23.9
2020-Sep-25 16:04 048 2 gusting 5 23.9
2020-Sep-25 15:59 089 1 gusting 6 23.9
2020-Sep-25 15:54 068 1 gusting 6 23.9
2020-Sep-25 15:50 081 2 gusting 6 23.9
2020-Sep-25 15:44 102 1 gusting 6 23.9
2020-Sep-25 15:40 092 2 gusting 5 23.9
2020-Sep-25 15:34 094 2 gusting 5 23.9
2020-Sep-25 15:28 106 2 gusting 6 23.9
2020-Sep-25 15:24 075 1 gusting 6 23.9
2020-Sep-25 15:19 037 2 gusting 6 23.9
2020-Sep-25 15:14 131 2 gusting 6 23.9
2020-Sep-25 15:09 061 2 gusting 6 23.9
2020-Sep-25 15:04 054 1 gusting 5 23.9
2020-Sep-25 14:59 060 0 gusting 5 23.9
2020-Sep-25 14:54 083 1 gusting 3 23.9
2020-Sep-25 14:49 109 1 gusting 8 23.9
2020-Sep-25 14:44 081 6 gusting 8 23.9
2020-Sep-25 14:39 139 5 gusting 7 23.9
2020-Sep-25 14:34 114 5 gusting 6 23.9
2020-Sep-25 14:29 101 4 gusting 6 23.9
2020-Sep-25 14:25 069 0 gusting 5 23.9
2020-Sep-25 14:19 156 3 gusting 7 23.9
2020-Sep-25 14:15 077 1 gusting 8 23.9
2020-Sep-25 14:09 119 1 gusting 8 23.9
2020-Sep-25 14:04 087 2 gusting 7 23.9
2020-Sep-25 13:59 087 2 gusting 7 23.9
2020-Sep-25 13:55 135 3 gusting 7 23.9
2020-Sep-25 13:49 055 4 gusting 7 23.9
2020-Sep-25 13:44 084 6 gusting 7 23.9
2020-Sep-25 13:39 133 2 gusting 5 24.4
2020-Sep-25 13:34 113 2 gusting 5 24.4
2020-Sep-25 13:30 055 2 gusting 5 24.4
2020-Sep-25 13:25 113 2 gusting 5 24.4
2020-Sep-25 13:19 061 24.4
2020-Sep-25 13:14 122 2 gusting 6 24.4
2020-Sep-25 13:09 074 1 gusting 5 24.4
2020-Sep-25 13:04 055 2 gusting 3 24.4
2020-Sep-25 13:00 039 1 gusting 3 24.4
2020-Sep-25 12:54 035 0 gusting 5 24.4
2020-Sep-25 12:49 036 24.4
2020-Sep-25 12:44 173 1 gusting 5 24.4
2020-Sep-25 12:39 101 2 gusting 6 24.4
2020-Sep-25 12:34 106 1 gusting 6 24.4
2020-Sep-25 12:30 113 1 gusting 3 24.4
2020-Sep-25 12:24 033 0 gusting 5 24.4
2020-Sep-25 12:20 072 1 gusting 5 24.4
2020-Sep-25 12:14 099 1 gusting 5 24.4
2020-Sep-25 12:09 075 2 gusting 5 24.4
2020-Sep-25 12:04 046 0 gusting 3 24.4
2020-Sep-25 11:59 113 2 gusting 2 24.4
2020-Sep-25 11:55 136 0 gusting 5 24.4
2020-Sep-25 11:49 077 1 gusting 5 23.9
2020-Sep-25 11:45 051 0 gusting 3 23.9
2020-Sep-25 11:39 089 0 gusting 3 23.9
2020-Sep-25 11:35 081 1 gusting 6 23.9
2020-Sep-25 11:29 092 1 gusting 6 23.9
2020-Sep-25 11:25 089 3 gusting 5 23.9
2020-Sep-25 11:19 111 1 gusting 6 23.9
2020-Sep-25 11:15 106 1 gusting 7 23.9
2020-Sep-25 11:09 080 3 gusting 7 23.9
2020-Sep-25 11:04 099 0 gusting 5 24.4
2020-Sep-25 10:59 062 2 gusting 6 24.4
2020-Sep-25 10:54 113 2 gusting 6 24.4
2020-Sep-25 10:49 103 3 gusting 6 24.4
2020-Sep-25 10:45 083 1 gusting 6 23.9
2020-Sep-25 10:39 080 2 gusting 6 23.9
2020-Sep-25 10:35 107 4 gusting 6 23.9
2020-Sep-25 10:29 109 1 gusting 6 24.4
2020-Sep-25 10:24 091 5 gusting 6 24.4
2020-Sep-25 10:19 037 1 gusting 3 24.4
2020-Sep-25 10:15 013 0 gusting 3 24.4
2020-Sep-25 10:09 116 1 gusting 3 24.4
2020-Sep-25 10:05 103 1 gusting 3 24.4
2020-Sep-25 09:59 118 2 gusting 6 24.4
2020-Sep-25 09:55 069 0 gusting 6 24.4
2020-Sep-25 09:49 075 1 gusting 5 24.4
2020-Sep-25 09:45 130 1 gusting 6 24.4
2020-Sep-25 09:38 107 2 gusting 6 24.4
2020-Sep-25 09:35 095 2 gusting 6 24.4
2020-Sep-25 09:29 131 2 gusting 5 24.4
2020-Sep-25 09:24 125 2 gusting 5 24.4
2020-Sep-25 09:19 117 1 gusting 5 24.4
2020-Sep-25 09:14 094 1 gusting 5 24.4
2020-Sep-25 09:09 080 0 gusting 7 24.4
2020-Sep-25 09:04 129 1 gusting 7 24.4
2020-Sep-25 08:59 077 3 gusting 7 24.4
2020-Sep-25 08:55 072 2 gusting 6 24.4
2020-Sep-25 08:50 107 2 gusting 6 24.4
2020-Sep-25 08:45 125 1 gusting 8 24.4
2020-Sep-25 08:39 071 1 gusting 8 24.4
2020-Sep-25 08:34 070 2 gusting 6 24.4
2020-Sep-25 08:29 099 2 gusting 6 24.4
2020-Sep-25 08:24 070 2 gusting 5 24.4
2020-Sep-25 08:19 106 2 gusting 5 25.0
2020-Sep-25 08:14 130 2 gusting 7 25.0
2020-Sep-25 08:09 114 3 gusting 7 24.4
2020-Sep-25 08:04 129 3 gusting 6 24.4
2020-Sep-25 07:59 128 1 gusting 6 24.4
2020-Sep-25 07:55 031 1 gusting 6 24.4
2020-Sep-25 07:49 076 1 gusting 5 25.0
2020-Sep-25 07:44 101 0 gusting 6 25.0
2020-Sep-25 07:40 113 1 gusting 7 24.4
2020-Sep-25 07:34 120 3 gusting 7 24.4
2020-Sep-25 07:29 086 3 gusting 7 24.4
2020-Sep-25 07:24 092 1 gusting 6 24.4
2020-Sep-25 07:19 104 2 gusting 6 24.4
2020-Sep-25 07:14 118 5 gusting 6 24.4
2020-Sep-25 07:09 124 4 gusting 5 24.4
2020-Sep-25 07:04 139 2 gusting 6 24.4
2020-Sep-25 06:59 110 3 gusting 5 24.4
2020-Sep-25 06:55 107 1 gusting 2 24.4
2020-Sep-25 06:49 130 1 gusting 5 24.4
2020-Sep-25 06:44 083 1 gusting 5 23.9
2020-Sep-25 06:39 066 0 gusting 5 24.4
2020-Sep-25 06:35 069 1 gusting 5 24.4
2020-Sep-25 06:29 113 0 gusting 5 24.4
2020-Sep-25 06:25 076 0 gusting 5 24.4
2020-Sep-25 06:19 056 0 gusting 3 24.4
2020-Sep-25 06:15 090 2 gusting 6 24.4
2020-Sep-25 06:09 129 1 gusting 6 24.4
2020-Sep-25 06:05 083 1 gusting 6 24.4
2020-Sep-25 05:59 118 1 gusting 6 24.4
2020-Sep-25 05:55 110 4 gusting 7 24.4
2020-Sep-25 05:49 126 6 gusting 7 24.4
2020-Sep-25 05:45 125 3 gusting 8 24.4
2020-Sep-25 05:39 137 6 gusting 8 24.4
2020-Sep-25 05:34 130 3 gusting 6 24.4
2020-Sep-25 05:29 121 1 gusting 6 24.4
2020-Sep-25 05:25 072 1 gusting 6 25.0
2020-Sep-25 05:19 075 3 gusting 6 25.0
2020-Sep-25 05:15 085 1 gusting 6 25.0
2020-Sep-25 05:09 101 1 gusting 6 25.0
2020-Sep-25 05:05 127 1 gusting 6 24.4
2020-Sep-25 04:59 138 1 gusting 6 24.4
2020-Sep-25 04:54 088 0 gusting 6 24.4
2020-Sep-25 04:50 137 2 gusting 5 24.4
2020-Sep-25 04:44 077 3 gusting 5 24.4
2020-Sep-25 04:40 103 2 gusting 5 24.4
2020-Sep-25 04:34 084 3 gusting 6 24.4
2020-Sep-25 04:30 069 2 gusting 6 24.4
2020-Sep-25 04:24 127 2 gusting 6 24.4
2020-Sep-25 04:20 080 2 gusting 5 24.4
2020-Sep-25 04:14 122 1 gusting 5 24.4
2020-Sep-25 04:09 061 3 gusting 6 24.4
2020-Sep-25 04:04 046 0 gusting 6 24.4
2020-Sep-25 03:59 053 2 gusting 6 24.4
2020-Sep-25 03:55 078 2 gusting 5 24.4
2020-Sep-25 03:49 091 1 gusting 5 24.4
2020-Sep-25 03:45 093 3 gusting 5 24.4
2020-Sep-25 03:39 093 0 gusting 6 24.4
2020-Sep-25 03:34 104 1 gusting 6 24.4
2020-Sep-25 03:29 097 4 gusting 7 24.4
2020-Sep-25 03:24 144 4 gusting 7 23.9
2020-Sep-25 03:19 080 2 gusting 6 23.9
2020-Sep-25 03:14 095 3 gusting 5 24.4
2020-Sep-25 03:10 105 2 gusting 5 24.4
2020-Sep-25 03:04 096 24.4
2020-Sep-25 02:58 074 0 gusting 3 23.9
2020-Sep-25 02:55 082 1 gusting 3 23.9
2020-Sep-25 02:50 141 1 gusting 3 23.9
2020-Sep-25 02:44 075 2 gusting 5 23.9
2020-Sep-25 02:39 141 1 gusting 5 23.9
2020-Sep-25 02:34 036 3 gusting 5 23.9
2020-Sep-25 02:29 073 1 gusting 5 23.9
2020-Sep-25 02:25 079 2 gusting 5 23.3
2020-Sep-25 02:19 103 1 gusting 5 23.3
2020-Sep-25 02:14 148 3 gusting 5 23.3
2020-Sep-25 02:09 133 1 gusting 5 23.9
2020-Sep-25 02:04 087 1 gusting 5 23.9
2020-Sep-25 01:59 100 1 gusting 6 23.9
2020-Sep-25 01:54 059 2 gusting 6 23.9
2020-Sep-25 01:50 083 4 gusting 6 23.3
2020-Sep-25 01:44 096 4 gusting 6 23.9
2020-Sep-25 01:39 087 1 gusting 6 23.3
2020-Sep-25 01:34 112 2 gusting 5 23.3
2020-Sep-25 01:29 080 3 gusting 5 23.3
2020-Sep-25 01:25 066 2 gusting 6 23.9
2020-Sep-25 01:19 141 2 gusting 6 23.3
2020-Sep-25 01:15 148 3 gusting 6 23.3
2020-Sep-25 01:09 132 5 gusting 6 23.3
2020-Sep-25 01:04 138 1 gusting 6 23.3
2020-Sep-25 00:59 094 3 gusting 6 22.8
2020-Sep-25 00:54 072 2 gusting 6 22.8
2020-Sep-25 00:49 136 3 gusting 6 22.8
2020-Sep-25 00:44 139 5 gusting 6 22.8
2020-Sep-25 00:39 069 1 gusting 5 22.8
2020-Sep-25 00:35 110 2 gusting 6 22.8
2020-Sep-25 00:29 083 1 gusting 6 22.2
2020-Sep-25 00:24 093 1 gusting 6 22.2
2020-Sep-25 00:19 103 3 gusting 6 22.2
2020-Sep-25 00:15 131 4 gusting 6 22.2
2020-Sep-25 00:09 149 2 gusting 6 21.7
2020-Sep-25 00:04 143 2 gusting 5 21.7
2020-Sep-24 23:59 084 2 gusting 5 21.7
2020-Sep-24 23:54 136 3 gusting 5 21.7
2020-Sep-24 23:49 104 3 gusting 6 21.7
2020-Sep-24 23:44 146 1 gusting 6 21.7
2020-Sep-24 23:39 166 5 gusting 6 21.1
2020-Sep-24 23:34 058 1 gusting 6 21.1
2020-Sep-24 23:30 151 2 gusting 6 21.1
2020-Sep-24 23:24 142 4 gusting 6 21.1
2020-Sep-24 23:19 099 1 gusting 6 21.1
2020-Sep-24 23:14 136 4 gusting 6 21.1
2020-Sep-24 23:10 131 1 gusting 5 21.1
2020-Sep-24 23:04 157 1 gusting 3 21.1
2020-Sep-24 22:59 096 1 gusting 3 21.1
2020-Sep-24 22:54 147 1 gusting 3 21.1
2020-Sep-24 22:49 104 0 gusting 2 21.1
2020-Sep-24 22:44 072 0 gusting 3 21.1
2020-Sep-24 22:40 075 1 gusting 3 21.1
2020-Sep-24 22:34 072 21.1
2020-Sep-24 22:30 128 1 gusting 3 21.1
2020-Sep-24 22:24 092 0 gusting 2 21.1
2020-Sep-24 22:19 098 1 gusting 3 21.1
2020-Sep-24 22:14 152 1 gusting 3 21.1
2020-Sep-24 22:10 112 0 gusting 3 21.1
2020-Sep-24 22:04 126 2 gusting 3 21.1
2020-Sep-24 22:00 164 1 gusting 3 21.1
2020-Sep-24 21:54 102 2 gusting 3 21.1
2020-Sep-24 21:50 145 1 gusting 5 21.1
2020-Sep-24 21:44 126 3 gusting 5 21.1
2020-Sep-24 21:39 168 1 gusting 5 21.1
2020-Sep-24 21:34 086 0 gusting 5 21.1
2020-Sep-24 21:29 093 0 gusting 5 21.1
2020-Sep-24 21:24 119 3 gusting 5 21.1
2020-Sep-24 21:19 122 2 gusting 3 21.1
2020-Sep-24 21:15 135 1 gusting 2 21.1
2020-Sep-24 21:10 090 0 gusting 2 21.7
2020-Sep-24 21:05 146 1 gusting 2 21.1
2020-Sep-24 20:59 135 2 gusting 2 21.7
2020-Sep-24 20:55 116 0 gusting 1 21.7
2020-Sep-24 20:49 091 21.7
2020-Sep-24 20:44 053 0 gusting 1 21.7
2020-Sep-24 20:39 050 1 gusting 2 21.7
2020-Sep-24 20:34 087 21.7
2020-Sep-24 20:29 139 0 gusting 3 21.7
2020-Sep-24 20:24 048 0 gusting 2 21.7
2020-Sep-24 20:19 098 21.7
2020-Sep-24 20:14 074 21.7
2020-Sep-24 20:09 043 21.7
2020-Sep-24 20:04 049 21.7
2020-Sep-24 19:59 027 0 gusting 1 21.7
2020-Sep-24 19:55 092 0 gusting 1 21.7
2020-Sep-24 19:49 031 0 gusting 2 21.7
2020-Sep-24 19:45 030 21.7
2020-Sep-24 19:39 077 21.7
2020-Sep-24 19:33 063 21.7
2020-Sep-24 19:29 111 1 gusting 2 21.7
2020-Sep-24 19:25 131 1 gusting 2 21.7
2020-Sep-24 19:19 051 21.7
2020-Sep-24 19:14 114 21.7
2020-Sep-24 19:09 096 21.7
2020-Sep-24 19:04 053 21.7
2020-Sep-24 18:59 050 21.7
2020-Sep-24 18:54 120 21.7
2020-Sep-24 18:49 117 0 gusting 3 21.7
2020-Sep-24 18:44 025 0 gusting 3 21.7
2020-Sep-24 18:39 167 1 gusting 3 21.7
2020-Sep-24 18:34 036 0 gusting 3 21.7
2020-Sep-24 18:29 021 0 gusting 2 21.7
2020-Sep-24 18:25 089 0 gusting 2 22.2
2020-Sep-24 18:19 077 0 gusting 1 22.2
2020-Sep-24 18:14 104 0 gusting 1 21.7
2020-Sep-24 18:10 108 21.7
2020-Sep-24 18:05 116 0 gusting 1 21.7
2020-Sep-24 17:59 129 0 gusting 5 22.2
2020-Sep-24 17:55 113 0 gusting 5 21.7
2020-Sep-24 17:49 081 2 gusting 3 22.2
2020-Sep-24 17:43 074 3 gusting 3 21.7
2020-Sep-24 17:39 059 0 gusting 3 21.7
2020-Sep-24 17:34 091 21.7
2020-Sep-24 17:29 355 0 gusting 2 21.7
2020-Sep-24 17:24 121 0 gusting 3 21.7
2020-Sep-24 17:19 005 21.7
2020-Sep-24 17:14 113 21.7
2020-Sep-24 17:09 094 0 gusting 2 22.2
2020-Sep-24 17:04 050 1 gusting 3 22.2